User: anonymous   Login
Location: Unspecified
(0.0000°N, 0.0000°E)
Time: 21:35:40
(UTC+01:00)
Language:

NOSS 2-2 (E) - Orbit

View from above orbital plane
View from above orbital plane
View from above satellite
View from above satellite

Ground track
Ground track

The orbit data is extracted from the following two-line orbital elements,

1 21809U 91076E   16039.82473111 0.00000320  00000-0  12537-3 0    08
2 21809  63.3600 294.5652 0708000  16.9940 343.0060 13.41236431    01
Epoch (UTC): 08 February 2016 19:47:36
Eccentricity: 0.0708000
inclination: 63.3600°
perigee height: 575 km
apogee height: 1634 km
right ascension of ascending node: 294.5652°
argument of perigee: 16.9940°
revolutions per day: 13.41236431
mean anomaly at epoch: 343.0060°
orbit number at epoch: 0

The dashed part of the orbit path shows where the satellite is in the earth's shadow,  

DLR